sat.trackr.live / text

‹ back to catalog

STARLINK-31521

NORAD 59015 · 2024-036T

PAYLOAD ACTIVE UNKNOWN

§ Identity

Operator
Country
US
Launch date
2024-02-23
Launch site
AFWTR
Launch vehicle
Mass (kg)
RCS (m²)

Purposes: comms

External: N2YO · Heavens-Above · Gunter

§ Orbital elements

Epoch: 2026-05-25T04:49:50.973888Z

Period
94.11 min
Inclination
53.1612°
Eccentricity
0.0001224
Mean motion
15.30193049 rev/d
Perigee alt
474.4 km
Apogee alt
476.1 km
Semi-major
6,853.4 km
B*
3.2728e-5
RAAN
83.0090°
Arg perigee
98.5076°
Mean anomaly
261.6064°
Rev number
12,703

§ Raw data

STARLINK-315211 59015U 24036T   26145.20128442  .00000610  00000+0  32728-4 0  99982 59015  53.1612  83.0090 0001224  98.5076 261.6064 15.30193049127037

JSON: /api/v1/satellites/59015 · /tle

For live sub-satellite position, see the globe view (requires WebGL).

§ Visibility from observer

Set your observer location to see the next 7 days of passes ≥ 10°. The values pass through the URL so the page stays shareable.

No JS? Fill the form by hand. The geolocation button needs JavaScript.